Location: Brede
(50.9167°N, 0.6000°E)
Time: 16:55:08
(UTC+00:00)

Resurs 1-4 Rocket - Pass Details

Date: 08 August 2020
Orbit: 799 x 815 km, 98.6° (Epoch: 22 September)

Event Time Altitude Azimuth Distance (km) Brightness Sun altitude
Rises 01:04:50 0° 19° (NNE) 3,336 6.8 -21.7°
Reaches altitude 10° 01:07:19 10° 27° (NNE) 2,398 5.7 -21.6°
Maximum altitude 01:12:19 41° 98° (E) 1,147 2.9 -21.3°
Enters shadow 01:14:24 29° 146° (SE) 1,442 3.1 -21.2°
